When you browse on this site, cookies collect data to enhance your experience and personalize the content and advertising you see.
Visit our Privacy Policy to learn more. By continuing to use the site, you agree to this use of cookies and data.
  • In United Kingdom
  • List of Countries
  • For 7 days
  • Water Temperature
  • Satellite Maps
  • Weather Map
  • Weather Widgets
  • user-avatar
    Login

    Hourly Weather Babruysk

    Today, 26 May, Sunday

    Time Temperature Precipitation Wind Pressure Humidity
    00:00 +13°C° 0 mm 2 mps 743 mmHg 91%
    01:00 +13°C° 0 mm 2 mps 743 mmHg 92%
    02:00 +12°C° 0 mm 2 mps 743 mmHg 93%
    03:00 +12°C° 0 mm 2 mps 743 mmHg 93%
    04:00 +12°C° 0 mm 2 mps 743 mmHg 93%
    05:00 +12°C° 0 mm 2 mps 744 mmHg 94%
    06:00 +13°C° 0 mm 2 mps 744 mmHg 86%
    07:00 +13°C° 0 mm 3 mps 744 mmHg 79%
    08:00 +16°C° 0 mm 3 mps 744 mmHg 72%
    09:00 +17°C° 0 mm 3 mps 744 mmHg 65%
    10:00 +18°C° 0 mm 4 mps 744 mmHg 58%
    11:00 +19°C° 0 mm 4 mps 744 mmHg 51%
    12:00 +19°C° 0 mm 5 mps 744 mmHg 50%
    13:00 +19°C° 0 mm 5 mps 744 mmHg 49%
    14:00 +20°C° 0 mm 5 mps 744 mmHg 48%
    15:00 +19°C° 0 mm 5 mps 744 mmHg 52%
    16:00 +19°C° 0 mm 5 mps 744 mmHg 55%
    17:00 +17°C° 0 mm 5 mps 744 mmHg 59%
    18:00 +17°C° 0 mm 4 mps 744 mmHg 66%
    19:00 +14°C° 0 mm 3 mps 744 mmHg 72%
    20:00 +12°C° 0 mm 3 mps 744 mmHg 79%
    21:00 +12°C° 0 mm 2 mps 745 mmHg 83%
    22:00 +12°C° 0 mm 2 mps 745 mmHg 88%
    23:00 +10°C° 0 mm 2 mps 745 mmHg 92%

    Tomorrow, 27 May, Monday

    Time Temperature Precipitation Wind Pressure Humidity
    00:00 +9°C° 0 mm 2 mps 745 mmHg 93%
    01:00 +9°C° 0 mm 2 mps 746 mmHg 93%
    02:00 +8°C° 0 mm 2 mps 746 mmHg 94%
    03:00 +9°C° 0 mm 2 mps 746 mmHg 92%
    04:00 +9°C° 0 mm 2 mps 746 mmHg 91%
    05:00 +9°C° 0 mm 3 mps 746 mmHg 90%
    06:00 +12°C° 0 mm 3 mps 746 mmHg 83%
    07:00 +14°C° 0 mm 4 mps 746 mmHg 76%
    08:00 +17°C° 0 mm 4 mps 746 mmHg 69%
    09:00 +19°C° 0 mm 4 mps 746 mmHg 63%
    10:00 +21°C° 0 mm 5 mps 746 mmHg 58%
    11:00 +22°C° 0 mm 5 mps 746 mmHg 52%
    12:00 +23°C° 0 mm 5 mps 746 mmHg 50%
    13:00 +25°C° 0 mm 5 mps 745 mmHg 48%
    14:00 +26°C° 0 mm 5 mps 745 mmHg 46%
    15:00 +26°C° 0 mm 5 mps 745 mmHg 48%
    16:00 +26°C° 0 mm 4 mps 745 mmHg 51%
    17:00 +26°C° 0 mm 4 mps 745 mmHg 53%
    18:00 +23°C° 0.5 mm 4 mps 745 mmHg 64%
    19:00 +21°C° 0.5 mm 3 mps 745 mmHg 74%
    20:00 +19°C° 0.5 mm 3 mps 745 mmHg 85%
    21:00 +18°C° 0.2 mm 3 mps 745 mmHg 88%
    22:00 +17°C° 0.2 mm 3 mps 745 mmHg 91%
    23:00 +17°C° 0.2 mm 2 mps 745 mmHg 94%

    Day after tomorrow, 28 May, Tuesday

    Time Temperature Precipitation Wind Pressure Humidity
    00:00 +16°C° 0 mm 2 mps 745 mmHg 94%
    01:00 +16°C° 0 mm 2 mps 745 mmHg 94%
    02:00 +16°C° 0 mm 2 mps 745 mmHg 95%
    03:00 +16°C° 0 mm 2 mps 745 mmHg 95%
    04:00 +16°C° 0 mm 2 mps 745 mmHg 95%
    05:00 +16°C° 0 mm 2 mps 745 mmHg 95%
    06:00 +18°C° 0 mm 2 mps 745 mmHg 91%
    07:00 +20°C° 0 mm 3 mps 745 mmHg 87%
    08:00 +21°C° 0 mm 3 mps 745 mmHg 83%
    09:00 +22°C° 0.5 mm 4 mps 745 mmHg 78%
    10:00 +25°C° 0.5 mm 5 mps 745 mmHg 72%
    11:00 +26°C° 0.5 mm 6 mps 744 mmHg 67%
    12:00 +27°C° 0.3 mm 6 mps 744 mmHg 63%
    13:00 +27°C° 0.3 mm 7 mps 744 mmHg 60%
    14:00 +28°C° 0.3 mm 7 mps 744 mmHg 57%
    15:00 +28°C° 0.2 mm 7 mps 744 mmHg 57%
    16:00 +27°C° 0.2 mm 6 mps 744 mmHg 57%
    17:00 +27°C° 0.2 mm 5 mps 743 mmHg 57%
    18:00 +26°C° 0 mm 5 mps 744 mmHg 61%
    19:00 +23°C° 0 mm 4 mps 744 mmHg 65%
    20:00 +22°C° 0 mm 4 mps 744 mmHg 69%
    21:00 +21°C° 0 mm 4 mps 744 mmHg 72%
    22:00 +21°C° 0 mm 4 mps 744 mmHg 75%
    23:00 +20°C° 0 mm 4 mps 744 mmHg 77%

    29 May, Wednesday

    Time Temperature Precipitation Wind Pressure Humidity
    00:00 +20°C° 0 mm 4 mps 744 mmHg 78%
    01:00 +19°C° 0 mm 4 mps 744 mmHg 79%
    02:00 +19°C° 0 mm 5 mps 744 mmHg 80%
    03:00 +17°C° 0 mm 5 mps 744 mmHg 77%
    04:00 +17°C° 0 mm 5 mps 744 mmHg 74%
    05:00 +16°C° 0 mm 5 mps 744 mmHg 71%
    06:00 +19°C° 0 mm 5 mps 744 mmHg 69%
    07:00 +20°C° 0 mm 6 mps 744 mmHg 67%
    08:00 +21°C° 0 mm 7 mps 744 mmHg 64%
    09:00 +22°C° 0 mm 6 mps 744 mmHg 64%
    10:00 +22°C° 0 mm 6 mps 744 mmHg 64%
    11:00 +22°C° 0 mm 6 mps 744 mmHg 63%
    12:00 +24°C° 0 mm 6 mps 744 mmHg 59%
    13:00 +27°C° 0 mm 6 mps 744 mmHg 55%
    14:00 +28°C° 0 mm 6 mps 744 mmHg 52%
    15:00 +28°C° 0.5 mm 6 mps 744 mmHg 56%
    16:00 +27°C° 0.5 mm 6 mps 744 mmHg 60%
    17:00 +27°C° 0.5 mm 5 mps 744 mmHg 64%
    18:00 +25°C° 1.9 mm 4 mps 744 mmHg 72%
    19:00 +22°C° 1.9 mm 4 mps 744 mmHg 81%
    20:00 +20°C° 1.9 mm 3 mps 745 mmHg 89%
    21:00 +19°C° 0.1 mm 3 mps 745 mmHg 91%
    22:00 +19°C° 0.1 mm 3 mps 745 mmHg 92%
    23:00 +18°C° 0.1 mm 2 mps 745 mmHg 93%

    30 May, Thursday

    Time Temperature Precipitation Wind Pressure Humidity
    00:00 +18°C° 0 mm 2 mps 745 mmHg 94%
    01:00 +18°C° 0 mm 2 mps 745 mmHg 95%
    02:00 +18°C° 0 mm 2 mps 745 mmHg 96%
    03:00 +18°C° 0.1 mm 2 mps 745 mmHg 96%
    04:00 +18°C° 0.1 mm 2 mps 745 mmHg 96%
    05:00 +18°C° 0.1 mm 2 mps 745 mmHg 96%
    06:00 +19°C° 0.4 mm 3 mps 745 mmHg 92%
    07:00 +20°C° 0.4 mm 3 mps 745 mmHg 89%
    08:00 +21°C° 0.4 mm 3 mps 745 mmHg 85%
    09:00 +24°C° 0.6 mm 3 mps 745 mmHg 77%
    10:00 +25°C° 0.6 mm 4 mps 745 mmHg 69%
    11:00 +27°C° 0.6 mm 4 mps 745 mmHg 60%
    12:00 +26°C° 1.1 mm 4 mps 745 mmHg 65%
    13:00 +25°C° 1.1 mm 4 mps 745 mmHg 70%
    14:00 +25°C° 1.1 mm 4 mps 745 mmHg 75%
    15:00 +23°C° 1 mm 4 mps 745 mmHg 80%
    16:00 +22°C° 1 mm 3 mps 746 mmHg 84%
    17:00 +21°C° 1 mm 3 mps 746 mmHg 89%
    18:00 +19°C° 0.4 mm 3 mps 746 mmHg 89%
    19:00 +17°C° 0.4 mm 4 mps 747 mmHg 90%
    20:00 +15°C° 0.4 mm 4 mps 747 mmHg 91%
    21:00 +14°C° 0 mm 4 mps 747 mmHg 90%
    22:00 +12°C° 0 mm 4 mps 748 mmHg 89%
    23:00 +11°C° 0 mm 4 mps 748 mmHg 88%

    31 May, Friday

    Time Temperature Precipitation Wind Pressure Humidity
    00:00 +11°C° 0 mm 4 mps 749 mmHg 88%
    01:00 +10°C° 0 mm 4 mps 749 mmHg 88%
    02:00 +10°C° 0 mm 4 mps 749 mmHg 88%
    03:00 +10°C° 0 mm 4 mps 750 mmHg 87%
    04:00 +8°C° 0 mm 4 mps 750 mmHg 86%
    05:00 +7°C° 0 mm 4 mps 750 mmHg 85%
    06:00 +8°C° 0 mm 4 mps 751 mmHg 81%
    07:00 +10°C° 0 mm 4 mps 751 mmHg 76%
    08:00 +11°C° 0 mm 4 mps 752 mmHg 72%
    09:00 +13°C° 0 mm 4 mps 752 mmHg 66%
    10:00 +15°C° 0 mm 5 mps 752 mmHg 60%
    11:00 +16°C° 0 mm 5 mps 753 mmHg 55%
    12:00 +17°C° 0 mm 5 mps 753 mmHg 52%
    13:00 +19°C° 0 mm 5 mps 753 mmHg 49%
    14:00 +20°C° 0 mm 5 mps 753 mmHg 46%
    15:00 +20°C° 0 mm 5 mps 753 mmHg 47%
    16:00 +19°C° 0 mm 4 mps 753 mmHg 48%
    17:00 +19°C° 0 mm 4 mps 753 mmHg 49%
    18:00 +18°C° 0 mm 3 mps 754 mmHg 56%
    19:00 +16°C° 0 mm 3 mps 754 mmHg 63%
    20:00 +15°C° 0 mm 2 mps 754 mmHg 70%
    21:00 +14°C° 0 mm 2 mps 754 mmHg 72%
    22:00 +13°C° 0 mm 2 mps 755 mmHg 73%
    23:00 +12°C° 0 mm 2 mps 755 mmHg 75%
    Show more